Location: Maccacari
(45.1333°N, 11.1333°E)
Time: 18:57:39
(UTC+00:00)

USA 234 - Pass Details

Date: 23 January 2021
Orbit: 1100 x 1107 km, 123.0° (Epoch: 01 March)

Event Time Altitude Azimuth Distance (km) Brightness Sun altitude
Exits shadow 20:01:22 35° 319° (NW) 1,702 4.5 -40.4°
Drops below altitude 10° 20:04:55 10° 311° (NW) 2,966 6.1 -41.0°
Sets 20:07:25 0° 310° (NW) 3,927 6.9 -41.4°
